Regional Weather Roundup
Issued by NWS

Home | Current Version | Previous Version | Text Only | Print | Product List | Glossary On
Versions: 1 2 3 4 5 6 7 8 9 10 11 12 13 14 15 16 17 18 19 20 21 22 23 24 25 26 27 28 29 30 31 32 33 34 35 36 37 38 39 40 41 42 43 44 45 46 47 48 49 50
000
ASUS44 KJAN 291110
RWRMS

MISSISSIPPI HOURLY WEATHER ROUNDUP
NATIONAL WEATHER SERVICE JACKSON MS
600 AM CDT SUN MAY 29 2016

NOTE: "FAIR: INDICATES FEW OR NO CLOUDS BELOW 12,000 FEET WITH NO
SIGNIFICANT WEATHER AND/OR OBSTRUCTIONS TO VISIBILITY.

MSZ001>002-007>008-010>013-018>021-025>028-034>036-291200-
NORTHWEST MISSISSIPPI

CITY           SKY/WX    TMP DP  RH WIND       PRES   REMARKS
BATESVILLE     CLOUDY    66  65  96 CALM      30.12R
CLARKSDALE     FOG       66  66 100 CALM      30.11R VSB 1/4
CLEVELAND      FAIR      67  67 100 CALM      30.10R
GREENWOOD      PTCLDY    67  64  90 CALM      30.11R
GREENVILLE     PTCLDY    66  64  93 CALM      30.10R FOG
OLIVE BRANCH   CLEAR     64 N/A N/A CALM      30.11R
OXFORD         CLOUDY    63  63 100 CALM      30.13R
TUNICA         FOG       64  64 100 CALM      30.12R VSB 1/2
WINONA         FAIR      63  63 100 CALM      30.11R
$$

MSZ003>006-009-014>017-022>024-029>033-037>039-291200-
NORTHEAST MISSISSIPPI

CITY           SKY/WX    TMP DP  RH WIND       PRES   REMARKS
COLUMBUS AFB   PTCLDY    65  63  94 NW2       30.10R
CORINTH        FOG       64  63  94 CALM      30.10R VSB 1/4
GOLDN TRIANGLE PTCLDY    64  61  88 W5        30.10R
STARKVILLE     FAIR      61  61 100 CALM      30.10R
TUPELO         PTCLDY    64  62  93 N3        30.11R
$$

MSZ040-058-291200-
CENTRAL MISSISSIPPI

CITY           SKY/WX    TMP DP  RH WIND       PRES   REMARKS
JACKSON INTL   CLEAR     66  64  93 S6        30.10R
JACKSON HAWKNS PTCLDY    68  66  93 CALM      30.10R
MADISON        FAIR      64  64 100 CALM      30.10R
MERIDIAN KEY   CLEAR     65  60  84 CALM      30.11R
MERIDIAN NAS   CLEAR     64  61  90 CALM      30.11R FOG
VICKSBURG TVR  CLOUDY    68  66  93 CALM      30.09R FOG
VICKSBURG VKS  SUNNY     66  66 100 CALM      30.09R FOG
$$

MSZ059>079-291200-
SOUTH MISSISSIPPI

CITY           SKY/WX    TMP DP  RH WIND       PRES   REMARKS
BROOKHAVEN     FAIR     N/A N/A N/A CALM      30.10S FOG
COLUMBIA       FOG       63  63 100 CALM      30.13R VSB<1/4
HATTIESBURG    PTCLDY    64  61  90 CALM      30.10R
MCCOMB         FOG       65  63  93 CALM      30.10R VSB 3/4
NATCHEZ        CLEAR     66  63  88 CALM      30.09R
PINE BELT      CLOUDY    63  57  82 CALM      30.11R
$$

MSZ080>082-291200-
COASTAL MISSISSIPPI

CITY           SKY/WX    TMP DP  RH WIND       PRES   REMARKS
BILOXI         CLOUDY    70  70 100 N3        30.08R
PASCAGOULA     MOCLDY    64  64 100 CALM      30.09R FOG
GULFPORT       FOG       67  66  97 CALM      30.08R VSB 1/2
$$




USA.gov is the U.S. government's official web portal to all federal, state and local government web resources and services.